Location: Asheville, NC
(35.6000°N, 82.5500°W)
Time: 05:48:04
(UTC-04:00)

STARS - Pass Details

Date: 12 January 2018
Orbit: 624 x 642 km, 98.3° (Epoch: 20 April)

Event Time Altitude Azimuth Distance (km) Brightness Sun altitude
Rises 05:10:03 0° 144° (SE) 2,892 ? -29.9°
Reaches altitude 10° 05:12:24 10° 134° (SE) 1,988 ? -29.5°
Maximum altitude 05:16:15 32° 71° (ENE) 1,063 ? -28.7°
Enters shadow 05:18:03 23° 29° (NNE) 1,326 ? -28.3°
